Miscellaneous Local Product
Issued by NWS Hastings, NE

Home | Current Version | Previous Version | Graphics & Text | Print | Product List | Glossary On
Versions: 1 2 3 4 5 6 7 8 9 10 11 12 13 14 15 16 17 18 19 20 21 22 23 24 25 26 27 28 29 30 31 32 33 34 35 36 37 38 39 40 41 42 43 44 45 46 47 48 49 50
000
AXUS43 KGID 180202
MISGRI

GID CWA HOURLY WEATHER ROUNDUP
NATIONAL WEATHER SERVICE HASTINGS NE
900 PM CDT FRI APR 17 2015

NOTE: "FAIR" INDICATES FEW OR NO CLOUDS BELOW 12,000 FEET WITH NO
SIGNIFICANT WEATHER AND/OR OBSTRUCTIONS TO VISIBILITY.

...SOUTH CENTRAL NEBRASKA...

CITY           SKY/WX    TMP DP  RH WIND       PRES   REMARKS
GRAND ISLAND   PTCLDY    58  53  84 SE5       29.99S
HASTINGS       CLEAR     61  53  75 E8        29.98R
KEARNEY        CLEAR     57  54  88 E9        29.98S
ORD            TSTM      58  52  80 N10       30.01R
YORK           LGT RAIN  63  59  88 SE8       29.99S
AURORA         CLEAR     60  55  84 SE3       29.98F
LEXINGTON      PTCLDY    60  56  87 E10       29.97S
HOLDREGE       PTCLDY    60  54  83 NE10      29.96F
HEBRON         PTCLDY    62  55  77 E3        29.96F

...NEBRASKA PANHANDLE...

CITY           SKY/WX    TMP DP  RH WIND       PRES   REMARKS
CHADRON        CLOUDY    46  44  93 N10       30.07F
ALLIANCE       CLOUDY    48  46  93 NE13      30.03S
SCOTTSBLUFF    CLOUDY    44  44 100 W13       30.04R
SIDNEY         LGT RAIN  51  49  92 NE7       30.00R FOG

...WESTERN AND NORTH CENTRAL NEBRASKA...

CITY           SKY/WX    TMP DP  RH WIND       PRES   REMARKS
VALENTINE      CLOUDY    53  51  93 W7        30.07R
AINSWORTH      CLOUDY    54  52  95 NE6       30.05S
ONEILL         CLOUDY    59  50  71 N7        30.04S
BROKEN BOW     CLOUDY    58  54  86 NE12      30.01R
IMPERIAL       MOCLDY    57  50  77 E8        29.94R THUNDER
NORTH PLATTE   MOCLDY    58  54  86 E12       29.98S
MCCOOK         MOCLDY    62  52  69 E8        29.93R

...EASTERN NEBRASKA...

CITY           SKY/WX    TMP DP  RH WIND       PRES   REMARKS
NORFOLK        NOT AVBL
SO SIOUX CITY  CLOUDY    69  44  40 NE7       30.01R
TEKAMAH        CLOUDY    67  51  56 E7        29.98S
COLUMBUS       MOCLDY    64  52  63 E5        30.01S
ALBION         MOCLDY    65  49  57 NE8       29.99F
OMAHA EPPLEY   CLOUDY    71  53  52 E3        29.98S
OFFUTT AFB     CLOUDY    65  55  69 E5        29.98R
MILLARD        CLOUDY    70  54  57 CALM      29.98S
LINCOLN        CLOUDY    68  55  63 S6        29.99S
NEBRASKA CITY  CLOUDY    65  51  61 NE5       29.99S
BEATRICE       CLOUDY    64  54  71 E5        29.98R
FALLS CITY     CLOUDY    68  57  68 SW3       29.97R

...NORTHERN KANSAS...

CITY           SKY/WX    TMP DP  RH WIND       PRES   REMARKS
GOODLAND       TSTM      51  48  89 N6        29.95S
HILL CITY      LGT RAIN  62  54  74 S6        29.95R
NORTON         MOCLDY    63  48  59 E10       29.94R
PHILLIPSBURG   PTCLDY    66  55  68 E9        29.94S
SMITH CENTER   PTCLDY    61  54  77 NE9       29.95F
BELOIT         CLEAR     63  52  67 E6        29.93S
HAYS           MOCLDY    64  50  59 E10       29.93S
RUSSELL        CLOUDY    64  55  72 E8        29.93R
CONCORDIA      PTCLDY    65  56  72 E6        29.96R
SALINA         MOCLDY    67  57  70 SE6       29.94R
TOPEKA         CLOUDY    65  57  75 NE3       29.95F



USA.gov is the U.S. government's official web portal to all federal, state and local government web resources and services.